Theta_e
308 307 309 310 313 314 315 316 317 318 319 320 321 323 323 322 322 322 323 323 323 323 323 323 323 323 323 323 324 324 324 324 327 327 327 328 328 327 328 329 329 334 337 337
307 308 308 309 310 312 314 315 315 316 316 318 320 322 322 321 321 321 322 322 322 322 321 321 322 322 322 323 323 324 323 323 325 327 328 328 327 327 329 330 332 337 338 337
308 308 308 308 309 311 312 314 315 316 316 317 317 319 319 319 319 318 318 318 318 318 319 319 320 321 321 322 322 322 323 323 325 327 327 327 327 328 330 332 335 338 339 339
307 308 306 307 309 310 312 312 313 314 315 317 316 319 320 320 320 319 318 318 318 318 318 317 318 318 319 320 320 321 321 322 325 327 326 327 328 329 331 334 337 339 340 341
308 306 306 307 309 310 311 311 313 314 315 316 316 316 318 318 319 319 320 318 317 317 317 317 317 316 316 317 317 319 320 323 325 328 328 330 331 333 335 338 340 339 338 335
309 307 306 306 308 309 310 311 311 312 313 315 315 316 317 318 318 318 318 317 317 317 317 316 316 317 318 319 319 319 322 323 328 330 331 333 335 337 339 339 338 336 335 333
310 309 309 307 307 307 308 310 311 312 312 313 314 315 316 318 317 317 317 317 317 317 317 317 317 317 318 318 320 321 321 326 331 333 336 337 339 339 339 338 337 336 332 332
311 312 309 309 308 307 308 309 311 311 312 312 312 314 315 316 316 316 316 316 317 318 320 321 322 318 318 319 319 321 326 332 336 338 339 340 340 339 338 337 334 332 332 332
313 313 310 311 310 308 308 308 310 310 311 312 313 313 314 315 316 317 316 316 317 319 322 324 325 323 320 320 322 326 333 337 338 339 340 340 339 334 332 332 332 331 332 331
311 312 310 310 310 309 309 310 308 309 310 311 313 314 315 316 315 316 316 316 317 322 328 331 326 322 320 321 326 333 337 338 339 340 339 335 333 333 332 331 331 331 331 331
310 310 310 310 310 310 310 310 310 310 310 311 312 314 316 316 316 316 316 315 316 319 328 333 332 324 326 329 334 339 340 339 339 337 334 333 333 332 331 331 331 329 328 329
309 311 311 310 309 309 309 309 309 312 311 311 312 312 314 315 314 315 316 315 316 318 326 333 338 335 334 337 338 339 340 338 336 334 333 332 330 329 327 327 328 329 328 328
309 309 309 308 312 310 310 310 310 310 311 313 312 312 314 314 315 315 315 315 315 317 323 333 336 339 337 337 338 339 338 335 334 334 333 330 321 323 328 329 329 328 328 328
309 310 310 310 309 310 311 310 310 311 313 312 313 313 314 314 315 315 315 316 316 317 323 333 334 339 338 337 337 337 335 334 334 334 329 320 327 329 329 329 329 328 328 327
309 310 309 309 309 309 310 310 311 311 311 312 311 312 313 314 315 315 315 316 316 318 321 329 334 338 337 337 337 336 335 335 334 330 322 327 328 328 329 328 329 328 328 327
309 310 309 309 308 308 309 309 310 311 311 311 311 311 311 312 311 312 314 317 318 320 324 329 335 336 336 337 337 336 335 334 332 323 329 328 327 328 329 328 328 328 328 327
309 310 309 308 307 310 311 311 311 311 311 311 312 311 311 311 312 314 318 319 319 321 325 330 335 337 338 337 336 335 334 332 324 329 329 328 326 327 328 328 328 328 328 327
308 309 309 308 309 311 311 314 314 315 315 315 316 312 312 312 312 317 317 317 319 324 328 332 335 337 338 337 336 335 333 327 328 331 330 327 325 327 327 328 329 327 329 328
306 309 309 310 312 311 311 310 311 312 313 315 314 313 313 314 316 316 316 322 322 323 328 332 335 337 338 337 335 334 331 328 330 331 331 328 326 326 327 327 327 328 328 329
308 305 310 312 313 314 314 310 306 307 315 315 316 316 318 317 318 319 323 320 323 325 329 334 335 337 338 336 333 333 330 329 330 331 331 329 327 326 326 327 327 328 328 329
314 312 310 311 313 313 311 309 305 314 315 308 314 314 315 318 317 317 318 320 322 325 330 335 336 337 337 334 333 332 330 329 331 331 331 329 327 326 325 327 326 328 328 329
313 314 314 313 315 316 309 308 310 308 307 310 313 313 313 316 316 318 319 320 323 327 332 335 336 336 336 333 334 332 329 329 331 332 331 327 326 327 327 327 326 328 328 328
313 312 312 310 313 309 308 311 308 308 309 312 311 312 314 315 317 317 319 321 324 329 333 335 336 336 335 334 335 333 325 329 330 332 332 328 328 328 328 327 327 327 328 327
310 310 312 311 311 311 310 310 310 311 311 312 310 311 313 314 316 317 319 323 328 332 334 335 335 334 335 334 333 330 325 327 329 331 330 330 328 328 329 327 327 325 327 327
311 311 311 311 310 311 310 310 310 310 310 311 311 311 313 314 316 317 317 322 330 334 334 333 334 334 334 334 332 328 323 327 329 330 329 331 329 330 330 328 327 325 327 326
310 311 312 311 310 311 310 310 310 311 311 311 310 311 314 315 316 316 323 327 332 334 333 333 333 334 334 334 333 329 325 326 328 330 329 330 330 331 331 328 327 327 328 327
Wind_Speed
6 9 21 24 21 24 12 16 23 18 13 14 23 30 26 25 29 31 35 34 33 31 35 42 44 43 39 32 30 29 23 26 23 24 21 23 26 28 24 22 19 17 14 15
5 18 18 14 15 20 24 21 11 10 5 9 19 26 19 13 19 25 28 30 32 33 33 38 37 34 31 31 29 27 24 25 23 19 19 23 25 24 21 17 16 15 14 15
13 14 8 16 19 18 20 25 20 9 4 10 11 20 21 17 22 27 29 30 31 33 30 36 37 34 32 29 25 23 23 24 22 18 18 21 22 19 18 18 17 15 15 15
11 15 14 17 19 20 21 14 19 18 11 13 4 13 17 17 19 18 22 25 31 28 31 42 45 46 44 36 29 23 22 23 21 18 20 22 18 17 17 15 15 14 15 16
16 10 10 18 16 15 17 7 11 11 16 15 20 11 22 17 21 23 20 27 26 32 38 37 39 42 39 37 33 27 24 22 20 17 17 15 14 13 12 15 16 16 18 16
18 18 7 8 11 14 10 18 18 10 10 14 18 13 21 18 21 20 14 19 21 22 22 26 28 27 26 21 23 22 21 20 17 15 14 13 14 14 15 18 17 18 17 16
9 18 16 13 12 6 10 12 9 11 11 17 11 12 21 11 11 7 5 11 16 17 18 19 20 18 22 21 17 18 19 16 16 15 15 15 12 11 13 15 17 18 17 15
3 5 6 3 13 13 14 14 10 17 13 14 13 13 9 17 19 21 17 8 13 15 16 18 18 15 13 17 19 18 16 16 18 18 18 16 14 14 14 14 16 14 12 12
5 3 9 6 9 12 10 11 14 4 1 8 11 22 18 14 11 8 6 8 20 25 24 29 19 14 13 13 15 15 17 20 21 20 18 17 15 15 17 16 14 13 13 12
4 7 5 9 9 5 6 7 10 6 7 9 8 17 9 3 13 2 8 14 21 26 25 26 17 9 14 14 14 17 20 21 21 20 18 18 18 16 15 13 13 13 12 11
7 3 2 4 4 6 3 6 4 6 10 7 6 4 6 18 7 7 8 15 24 25 27 24 12 2 10 15 18 23 25 24 23 21 21 20 18 15 14 13 12 11 10 10
4 5 6 7 5 4 9 6 2 6 18 12 8 5 7 10 7 12 15 24 27 23 24 20 9 1 9 17 23 27 26 25 24 24 21 18 15 13 12 11 10 9 9 10
6 1 6 7 5 5 1 4 4 6 6 15 14 9 8 5 13 16 22 27 29 27 24 14 7 3 12 16 21 26 26 26 26 24 19 16 13 13 11 10 9 10 10 10
12 5 9 9 8 9 11 11 10 7 9 14 19 19 24 21 21 22 28 27 28 25 22 14 5 6 14 17 20 24 25 27 26 22 17 15 15 11 11 10 11 10 11 11
6 10 11 14 17 18 18 19 18 17 17 14 16 19 22 20 18 22 26 29 29 26 22 16 6 11 17 18 21 23 25 27 24 20 18 16 12 12 12 11 11 11 13 13
3 6 10 17 15 18 19 19 19 21 21 23 22 23 21 28 31 28 25 27 27 25 23 18 10 14 20 21 22 24 25 25 22 21 18 15 12 13 12 11 10 12 15 13
5 5 3 6 6 7 11 18 21 19 18 17 21 19 18 25 21 22 24 26 28 29 25 21 15 19 22 23 25 26 26 24 21 20 19 14 12 13 12 11 11 13 16 14
4 6 4 5 5 5 1 6 7 13 19 19 21 21 18 20 25 22 30 28 31 28 24 21 15 20 23 23 25 25 26 23 22 21 19 16 14 12 10 11 11 12 14 14
13 4 3 4 5 9 6 4 3 5 9 13 10 12 15 21 22 29 28 12 15 20 23 19 15 20 23 25 27 27 26 23 22 21 18 16 13 12 10 10 11 10 11 12
8 7 3 4 4 3 0 2 12 6 6 3 5 5 9 7 7 14 12 22 23 20 18 13 15 20 25 27 31 29 26 25 23 20 18 16 12 11 9 7 8 9 10 11
4 2 7 10 6 6 5 13 9 3 4 18 9 7 10 6 10 24 29 27 22 21 17 11 16 22 25 30 34 29 25 25 23 20 18 15 12 10 8 6 6 10 11 12
4 5 2 3 3 2 8 8 4 7 19 20 11 9 12 15 19 19 23 23 21 19 10 15 18 22 26 32 34 28 26 24 23 20 18 16 14 10 7 4 4 9 11 11
3 3 4 2 3 10 20 12 21 24 19 14 14 12 15 18 17 17 19 19 18 15 11 18 20 23 27 32 31 28 27 26 26 22 20 17 14 11 7 5 4 9 11 10
4 3 3 8 3 11 10 15 20 20 18 14 9 13 16 19 17 17 17 17 13 10 15 18 20 23 29 31 29 27 28 28 26 23 22 20 15 11 8 9 6 7 10 10
4 8 9 7 8 17 10 20 24 22 16 12 9 13 15 17 15 16 20 15 9 8 17 20 19 23 28 30 28 26 28 28 26 23 22 22 18 11 9 10 7 7 7 7
3 3 5 6 18 11 19 24 25 17 18 10 11 16 14 12 13 15 9 8 2 9 15 17 18 20 24 29 28 25 25 27 25 24 23 22 19 14 12 11 8 9 9 11
Wind_Direction
215 222 221 223 228 247 259 264 245 259 231 209 221 244 250 247 259 262 270 275 276 278 283 283 284 291 289 282 277 284 294 305 292 272 252 244 238 245 247 242 248 244 235 218
221 234 251 250 249 244 246 255 266 252 245 235 244 250 253 249 255 257 264 270 274 280 280 283 285 283 285 275 271 272 288 296 295 261 245 240 243 252 245 235 237 230 209 199
240 264 251 248 239 244 237 240 240 250 291 249 274 267 254 247 249 254 259 264 267 268 273 279 275 277 280 279 275 276 283 291 288 260 243 240 243 243 228 225 223 203 195 195
245 255 238 238 238 229 242 236 240 239 253 243 202 275 259 252 252 252 260 263 264 271 269 273 275 276 274 275 278 274 279 284 278 256 241 240 243 234 227 223 204 188 193 192
243 274 232 225 234 226 235 206 203 216 228 243 240 263 261 254 257 257 256 257 267 267 267 268 270 273 274 270 271 271 270 270 269 246 231 222 218 211 208 192 177 183 186 188
258 252 280 287 213 219 227 215 237 251 246 236 232 231 268 248 258 263 265 262 273 279 286 281 276 271 269 262 253 254 256 262 248 223 209 204 198 196 189 178 178 181 186 191
269 239 242 254 256 220 212 189 191 216 217 237 215 220 245 263 264 271 223 322 309 294 297 294 288 270 251 251 248 247 253 243 216 203 188 185 180 181 184 182 183 184 185 194
325 265 182 332 230 240 213 199 206 219 216 231 210 230 241 230 267 272 264 313 337 333 335 318 316 283 262 245 244 237 225 204 189 179 179 173 172 171 178 180 175 182 193 201
313 240 286 286 318 228 198 213 223 278 156 227 197 243 269 258 275 257 295 326 352 347 346 342 319 277 249 237 226 210 192 180 176 175 174 171 172 171 166 167 176 186 196 201
303 298 165 294 331 192 245 216 194 211 206 208 207 239 232 197 209 18 35 4 346 352 348 343 328 251 221 214 193 180 176 173 170 168 168 167 163 166 171 181 189 196 199 210
328 274 291 288 194 279 238 234 245 244 238 243 241 218 218 224 97 47 14 352 353 348 350 348 343 216 181 182 173 168 169 169 164 165 164 162 164 170 176 182 194 201 207 213
325 299 289 270 270 262 251 285 257 250 215 239 279 278 114 119 69 8 350 347 345 345 347 348 342 191 167 163 164 167 168 166 163 161 158 159 165 172 181 181 190 197 188 181
352 308 312 312 158 128 202 197 236 254 262 249 239 229 189 262 324 339 335 337 338 337 343 342 333 188 170 159 162 167 167 165 160 158 158 163 166 165 172 176 179 171 170 173
313 260 254 266 294 305 292 289 283 271 250 247 243 258 269 284 308 319 328 330 327 327 336 329 317 190 175 165 164 166 163 162 158 158 162 160 160 166 169 173 171 168 170 164
271 256 252 255 265 276 276 277 277 261 254 251 261 253 265 285 298 311 313 314 316 319 322 319 257 198 178 172 168 167 164 161 160 160 158 159 164 166 165 166 165 168 165 159
248 264 252 268 267 260 266 263 262 258 257 256 259 262 269 278 281 282 296 301 303 306 310 316 247 203 184 178 173 167 165 165 162 158 156 158 161 163 165 167 168 173 168 162
218 238 240 263 285 301 276 254 246 255 256 257 257 264 261 268 272 277 292 293 294 297 299 305 250 207 191 181 175 169 167 167 162 158 157 151 155 160 165 168 165 173 176 169
254 210 240 279 274 245 107 53 314 281 272 274 258 254 254 265 273 286 280 284 288 291 292 299 231 203 189 178 174 169 168 167 162 160 158 154 149 151 160 168 167 171 180 182
217 219 229 250 221 284 291 70 321 326 295 301 261 237 247 260 287 283 277 281 290 290 289 289 226 196 182 176 172 171 168 167 166 167 166 165 158 156 152 158 170 165 178 187
208 227 244 217 263 286 266 305 330 299 258 22 340 265 268 286 276 270 311 315 304 296 291 257 204 187 180 175 175 172 171 171 173 172 173 172 163 164 164 154 162 167 167 170
290 221 214 247 258 259 21 324 338 224 14 314 312 321 313 301 261 290 301 299 298 294 287 217 192 184 180 177 175 172 175 176 176 177 178 170 161 159 162 160 158 173 171 175
316 320 340 283 290 345 315 336 327 275 292 301 303 301 314 302 290 291 294 296 297 293 266 197 186 183 180 179 176 174 179 177 178 181 178 175 180 184 179 174 169 177 179 181
307 347 323 259 294 291 297 279 277 285 283 301 300 292 308 305 302 306 302 300 293 283 226 196 185 179 180 179 179 179 180 178 180 184 180 181 192 201 196 188 195 187 183 186
283 278 282 318 211 308 342 334 333 325 309 300 289 295 308 310 309 310 313 303 296 268 195 187 180 177 177 177 184 185 181 180 186 190 191 193 201 203 202 204 210 198 187 186
273 317 323 298 309 326 331 343 328 324 321 306 308 314 310 317 317 310 302 302 301 196 181 185 176 179 177 178 182 182 180 184 190 194 192 196 204 202 204 200 199 180 176 173
223 306 339 320 318 321 319 328 328 323 326 337 314 314 337 345 313 314 332 339 11 151 165 173 170 175 181 182 185 181 181 188 193 197 194 197 202 205 208 201 187 168 159 159